www.pogodaiklimat.ru

Погода и климат >> Архив погоды >> Россия >> Красноярский край >> Чемдальск


ПОГОДА в Чемдальске

  • Прогноз погоды в Чемдальске
  • Монитор погоды в Чемдальске

АРХИВ ПОГОДЫ в Чемдальске

Время (UTC), дата Ветер
(напр.,м/с)
 
Видим.   Явления Облачность Т
(С)
Тd
(С)
f
(%)
Тe
(С)
Тes
(С)
Комфортность P
(гПа)
Po
(гПа)
Тmin
(С)
Tmax
(С)
R
(мм)
R24
(мм)
S
(см)
21 17.05 штиль 0 н/о 8/0
[Ci fib]
-3.9 -7.2 78 -5 -5 1022.0 986.2
00 18.05 штиль 0 50 км 10/0
[Ci fib]
+1.6 -4.6 63 +1 +5 1021.8 986.8 -4.1
03 18.05 С 2 50 км 9/8 1000 м
[Sc Ci fib]
+10.5 -5.1 33 +10 +11 1022.0 988.0
06 18.05 З 2 50 км 9/9 1000 м
[Sc]
+12.0 -5.5 29 +12 +13 1021.8 988.0
09 18.05 СЗ 1 50 км 9/9 1000 м
[Sc]
+13.0 -6.1 26 +14 +14 1020.4 986.7
12 18.05 З 2 50 км 8/0
[Ac trans]
+11.5 -6.8 27 +11 +11 1020.6 986.8 +14.0
15 18.05 штиль 0 н/о ясно +2.0 -9.0 44 +2 +2 1023.1 988.0
18 18.05 штиль 0 н/о ясно -3.0 -8.1 68 -4 -4 1023.7 988.0
21 18.05 штиль 0 н/о ясно -5.2 -8.9 75 -6 -6 1023.9 987.8
00 19.05 штиль 0 50 км ясно +3.1 -4.8 56 +3 +8 1022.5 987.6 -5.5
03 19.05 СВ 1 50 км 8/5 600 м
[Cu hum Ci fib]
+12.4 -5.6 28 +13 +17 1021.8 988.0
06 19.05 СВ 1 50 км 6/6 600 м
[Cu hum]
+13.4 -5.7 26 +14 +20 1020.3 986.7
09 19.05 СЗ 2 50 км 6/6 600 м
[Cu hum]
+15.7 -2.3 29 +16 +19 1018.6 985.3
12 19.05 Ю 1 50 км ясно +15.8 -2.1 29 +17 +18 1015.7 982.5 +16.8
15 19.05 штиль 0 н/о ясно +3.5 -6.2 49 +3 +3 1017.4 982.7
18 19.05 штиль 0 н/о 10/0
[Ci fib]
-1.0 -5.6 71 -2 -2 1016.5 981.3
00 20.05 Ю 1 50 км 10/0
[Cs]
+12.1 -3.0 35 +13 +16 1010.0 976.7 -1.3
03 20.05 Ю 3 50 км 10/0
[Ac trans Cs]
+18.1 -2.2 25 +18 +18 1007.3 974.7
06 20.05 Ю 4 50 км 9 баллов +22.0 -0.1 23 +21 +22 комфорт 1002.8 970.7
09 20.05 ЮЗ 5-12
{14}
50 км 9/9 1000 м
[Cu med, cong]
+23.7 +1.3 23 +23 +23 комфорт 999.8 968.0
12 20.05
{13}
50 км 8/8 1000 м
[Sc]
+16.5 +5.2 47 1001.0 968.5 +25.5
15 20.05 штиль 0 н/о {гроза, ливн. осадки} 8/3 600 м
[Cb cap Ac cuf Cs]
+8.6 +7.5 93 +8 +8 1004.3 970.7
18 20.05 штиль 0 н/о {гроза, ливн. осадки} 3/0
[Ac trans]
+4.0 +2.8 92 +3 +3 1003.4 969.3
21 20.05 штиль 0 н/о 3/0
[Ac trans]
+1.8 +0.7 92 +1 +1 1003.2 968.8
00 21.05 Ю 1 50 км 8/0
[Ci fib]
+10.9 +9.1 89 +11 +14 1002.0 968.8 +1.8 2
03 21.05 ЮЗ 1 50 км 7 баллов +20.1 -0.5 25 +21 +25 комфорт 1000.2 968.0
06 21.05 Ю 2 50 км 9/4 600 м
[Cb cap Ac trans Ci sp]
+21.7 +0.8 25 +21 +23 комфорт 998.7 966.7
09 21.05 Ю 2 50 км 10/9 600 м
[Cb cap As trans]
+21.6 +0.2 24 +21 +21 комфорт 995.9 964.0
12 21.05 Ю 1 20 км слаб. дождь 10/0 600 м
[As op]
+12.8 +10.5 86 +13 +13 994.2 961.5 +23.0 2
15 21.05 ЮВ 2 н/о в посл. час дождь 10/4 600 м
[Sc diur, vesp Ci fib]
+11.0 +9.6 91 +10 +10 992.9 960.0
18 21.05 З 4 н/о слаб. ливневой дождь 10 баллов +11.4 +9.7 89 +9 +9 992.8 960.0
21 21.05 штиль 0
{13}
50 км {ливн. осадки} ?/? +7.6 +4.6 81 +7 +7 995.7 962.4
00 22.05 ЮЗ 2 50 км {ливн. осадки} 10/10 600 м
[Sc]
+7.9 +4.5 79 +6 +6 996.6 963.3 +7.6 4
03 22.05 З 2 50 км 3/3 600 м
[Cu hum]
+13.0 +3.4 52 +13 +22 998.2 965.3
06 22.05 З 4
{10}
50 км 8/6 600 м
[Cb cap Ci fib]
+15.6 +2.0 40 +15 +18 996.5 964.0
09 22.05 З 3
{11}
20 км слаб. ливневой дождь 10/10 600 м
[Cb cap]
+9.4 +3.4 66 +7 +7 998.6 965.3
12 22.05 З 2 50 км {ливн. осадки} 10/10 600 м
[Cb cap]
+7.3 +5.5 88 +5 +5 998.2 964.8 +17.2 4
15 22.05 З 2 н/о в посл. час дождь 10/8 600 м
[Sc Ci fib]
+6.0 +4.6 91 +3 +3 1000.5 966.7
18 22.05 ЮЗ 1 н/о 8/8 600 м
[Sc]
+3.0 +1.7 91 +1 +1 1002.2 968.0
21 22.05 штиль 0 н/о 1/0
[Ac trans]
+0.3 -1.0 91 -1 -1 1001.7 967.2
00 23.05 З 1 50 км 5/0
[Cc]
+6.7 +3.1 78 +6 +10 1002.4 968.8 0.0 0.3
03 23.05 З 1 50 км 9 баллов +11.1 -3.0 37 +11 +13 1002.6 969.3
06 23.05 СЗ 2 50 км в посл. час ливневой дождь 10/10 600 м
[Cb cap]
+8.0 +1.2 62 +6 +6 1002.9 969.3
09 23.05 З 1 50 км в посл. час гроза 10 баллов +10.7 +4.4 65 +11 +11 1001.2 968.0
12 23.05 З 1
{11}
50 км в посл. час гроза {ливн. осадки} 10/3 600 м
[Cb cap Ac cuf Ci ing]
+9.8 +2.3 60 +10 +10 1001.8 968.5 +14.2 2
15 23.05 З 3 н/о 2 балла +7.3 +1.2 65 +5 +5 1005.8 972.0
18 23.05 штиль 0 н/о ясно +1.5 -0.1 89 0 0 1007.9 973.3
00 24.05 З 1 50 км 3/0
[Ac trans]
+4.4 -2.0 63 +3 +7 1010.8 976.5 -1.7
03 24.05 З 3 50 км 10 баллов +5.6 -1.3 61 +3 +3 1013.0 978.7
06 24.05 СЗ 3 50 км 9 баллов +7.8 -5.0 40 +6 +7 1014.1 980.0
09 24.05 ЮЗ 3 50 км 9 баллов +9.8 -4.2 37 +8 +9 1015.2 981.3
12 24.05 З 2 50 км 8/8 1000 м
[Sc]
+9.5 -5.6 34 +9 +9 1013.9 980.1 +10.6
15 24.05 штиль 0 н/о 10 баллов +3.2 -3.2 63 +3 +3 1016.0 981.3

 

Местоположение метеостанции Чемдальск (Красноярский край, Россия): широта 59.63 долгота 103.30 высота над уровнем моря 282 м.

В архиве по умолчанию представлена погода в Чемдальске за последнюю неделю. Архивные данные за месяц целиком и за предыдущие месяцы, начиная с января 2011 года, Вы можете получить, выбрав интересующий диапазон дат из раскрывающегося списка и нажав кнопку "Ввод!".


*Определитесь, кто Вы:
робот инопланетянин человек

Внимание! Время в таблицах - всемирное. Для получения местного времени необходимо прибавить поправку, которая равна 7 ч.

Смотрите также архив погоды в соседних городах и на ближайших метеорологических станциях:

Погода в Ванаваре (Эвенкия, Россия) (96 км)
Погода в Ике (Иркутская область, Россия) (163 км)
Погода в Усть-Илимске (Иркутская область, Россия) (188 км)
Погода в Токме (Иркутская область, Россия) (208 км)
Погода в Стрелке-Чуне (Эвенкия, Россия) (237 км)
Погода в Муторае (Эвенкия, Россия) (247 км)
Погода в Кодинске (Красноярский край, Россия) (260 км)
Погода в Преображенке (Иркутская область, Россия) (267 км)
Погода в Новой Игирме (Иркутская область, Россия) (282 км)
Погода в Ершово (Иркутская область, Россия) (285 км)

Пояснения к столбцам:

Ветер - указаны скорость ветра в м/с - средняя за 10 мин, порывы в срок и между сроками (в фигурных скобках) и направление, откуда дует ветер: С - северный, СВ - северо-восточный, В - восточный, ЮВ - юго-восточный, Ю - южный, ЮЗ - юго-западный, З - западный, СЗ - северо-западный.
Видимость - горизонтальная дальность видимости в метрах или километрах. При видимости от 1 до 10 км при отсутствии осадков обычно наблюдается дымка, при ухудшении видимости до 1 км и менее - туман. В сухую погоду видимость может ухудшаться дымом, пылью или мглою.
Явления - указаны атмосферные явления, наблюдавшиеся в срок или в последний час перед сроком; фигурными скобками обозначены явления, наблюдавшиеся между сроками (за 1-3 часа до срока); квадратными скобками обозначены град или гололедные отложения с указанием их диаметра в мм.
Облачность - указаны через наклонную черту общая и нижняя облачность в баллах и высота нижней границы облаков в метрах; квадратными скобками обозначены формы облаков: Ci - перистые, Cs - перисто-слоистые, Cc - перисто-кучевые, Ac - высококучевые, As - высокослоистые, Sc - слоисто-кучевые, Ns - слоисто-дождевые, Cu - кучевые, Cb - кучево-дождевые. Подробнее классификацию облаков см. в Атласе облаков (PDF).
T - Температура воздуха - температура, измеренная на высоте 2 м над землей.
Td - Температура точки росы - температура, при понижении до которой содержащийся в воздухе водяной пар достигнет насыщения.
f - Относительная влажность воздуха - влажноcть воздуха, измеренная на высоте 2 м над землей.
Te - Эффективная температура - температура, которую ощущает одетый по сезону человек в тени. Характеристика душности погоды. При расчете учитывается влияние влажности воздуха и скорости ветра на теплоощущения человека.
Tes - Эффективная температура на солнце - температура, которую ощущает человек, с поправкой на солнечный нагрев. Характеристика знойности погоды. Зависит от высоты солнца над горизонтом, облачности и скорости ветра. Ночью, в пасмурную погоду, а также при ветре 12 м/с и более поправка равна нулю.
P - Атмосферное давление - приведенное к уровню моря атмосферное давление.
Po - Атмосферное давление - измеренное на уровне метеостанции атмосферное давление.
Tmin - Минимальная температура - минимум температуры воздуха на высоте 2 м над землей.
Tmax - Максимальная температура - максимум температуры воздуха на высоте 2 м над землей.
R - Количество осадков - Количество выпавших осадков за период времени, мм. При наведении курсора мыши на число - период времени, за который выпало указанное количество осадков.
R24 - Количество осадков - Количество выпавших осадков за 24 часа, мм.
S - Снежный покров - Высота снежного покрова, см. При наведении курсора мыши на число - состояние снежного покрова и степень покрытия местности в баллах.